EW8775 Weather Reports


Display with metric or nautical units.
time (UTC)temp
F
wind
direction
speed
MPH
gust
MPH
rain 1hr
in
rain 24hr
in
rain mn
in
humidity
%
barometer
mb
20210417060147 39 0.0 2.0 0.00 0.08 0.00 75 1017.0
20210417053226 39 45 1.0 3.0 0.00 0.08 0.08 75 1016.7
20210417050040 39 0.0 2.0 0.00 0.08 0.08 77 1016.6
20210417043034 38 45 1.0 4.0 0.00 0.08 0.08 77 1016.6
20210417040033 39 0.0 3.0 0.00 0.08 0.08 80 1016.7
20210417033035 40 315 2.0 5.0 0.00 0.08 0.08 80 1016.4
20210417030037 40 315 1.0 5.0 0.00 0.08 0.08 79 1016.2
20210417023025 41 0.0 4.0 0.00 0.08 0.08 72 1015.8
20210417020026 42 270 1.0 6.0 0.00 0.08 0.08 70 1015.6
20210417013103 42 0.0 0.0 0.00 0.08 0.08 69 1015.2
20210417010141 43 0.0 0.0 0.00 0.08 0.08 68 1015.1
20210417003036 43 180 2.0 7.0 0.00 0.08 0.08 68 1015.1
20210417000136 43 157 6.0 12.0 0.00 0.08 0.08 69 1014.9
20210416233042 44 157 8.0 16.0 0.00 0.08 0.08 66 1014.8
20210416230159 45 157 4.0 11.0 0.00 0.08 0.08 59 1014.5
20210416223026 46 315 4.0 12.0 0.00 0.08 0.08 58 1014.5
20210416220122 45 337 5.0 12.0 0.00 0.08 0.08 66 1014.5
20210416213024 44 315 5.0 14.0 0.00 0.08 0.08 68 1014.5
20210416210031 44 337 6.0 13.0 0.00 0.08 0.08 73 1014.6
20210416203059 43 337 7.0 16.0 0.01 0.09 0.08 78 1014.7
20210416200111 41 337 7.0 15.0 0.01 0.09 0.08 82 1014.6
20210416193328 39 337 5.0 13.0 0.00 0.08 0.07 87 1014.9
20210416190126 38 337 3.0 8.0 0.00 0.08 0.07 86 1015.2
20210416183038 38 315 2.0 8.0 0.00 0.08 0.07 88 1015.1
20210416180037 38 315 3.0 8.0 0.01 0.08 0.07 90 1015.2
20210416173035 37 292 2.0 7.0 0.02 0.08 0.07 90 1015.1
20210416170100 36 292 1.0 4.0 0.01 0.07 0.06 90 1014.9
20210416163034 35 0.0 3.0 0.00 0.06 0.05 89 1014.7
20210416160035 35 292 1.0 6.0 0.01 0.06 0.05 89 1014.5
20210416153024 36 270 2.0 7.0 0.01 0.06 0.05 88 1014.4
20210416150254 37 0.0 0.0 0.00 0.06 0.04 87 1014.3
20210416143026 37 0.0 0.0 0.00 0.06 0.04 88 1014.2
20210416140149 36 0.0 3.0 0.00 0.09 0.04 88 1014.2
20210416133026 36 0.0 4.0 0.00 0.09 0.04 88 1014.0
20210416130047 35 0.0 0.0 0.00 0.09 0.04 89 1013.9
20210416123028 35 0.0 0.0 0.00 0.09 0.04 89 1013.8
20210416120048 35 157 1.0 5.0 0.00 0.09 0.04 89 1013.8
20210416113035 36 0.0 2.0 0.00 0.09 0.04 88 1013.7
20210416110042 36 0.0 2.0 0.00 0.09 0.04 88 1013.8
20210416103129 36 0.0 1.0 0.00 0.09 0.04 88 1013.6
20210416100032 36 0.0 1.0 0.00 0.09 0.04 87 1013.8
20210416093035 36 0.0 3.0 0.01 0.09 0.04 87 1013.8
20210416090032 36 22 1.0 5.0 0.04 0.09 0.04 87 1013.5
20210416083034 36 0 5.0 10.0 0.03 0.08 0.03 86 1013.6
20210416080035 37 337 1.0 8.0 0.00 0.05 0.00 82 1013.9
20210416073042 38 0.0 0.0 0.00 0.05 0.00 82 1013.8
20210416070025 37 0.0 0.0 0.00 0.05 0.00 81 1013.5
20210416063053 37 0.0 3.0 0.00 0.05 0.00 80 1013.2